Volver al catálogo

STARLINK-5806

ActivoComunicacionesVLEO
NORAD 56007·PAYLOAD·🇺🇸 United States

Lanzado Mar 24, 2023 desde Cape Canaveral Space Force Station

Loading…

Próximos Pases (próximas 24 horas)

TLE

ActualizadoSource: CelesTrak SupGP

Época: Sep 15, 2026, 01:34 UTC

1 56007C 23042X   26258.06576389 -.00030448  00000+0 -11025-2 0  2585
2 56007  43.0036  70.0951 0002276 272.5194  34.8082 15.27600802    12

Sigue STARLINK-5806 en tiempo real con AllMySat

Download on the App Store